Find Starlink 5062

NORAD ID: 55637 Int'l Des: 2023-021 Owner: SPXS Country: US Constellation: starlink operational
LEOCIRCULAR

当前视图

正在加载3D地球...

About Starlink 5062

Starlink 5062 (NORAD 55637) is a starlink constellation satellite (v1.5) launched Feb 17, 2023 by SPXS of US. It operates in LEO, CIRCULAR orbit with a mass of 305.00 kg.

关于 Starlink 5062

正在加载描述...

即将过境

Passes for default location (London). Set your location on the main map for personalized predictions.

高度历史

Loading altitude history...

两行轨道根数

1 55637U 23021K 26167.06055858 .00000113 00000-0 17237-4 0 9992
2 55637 69.9996 296.5375 0003201 268.9255 91.1537 14.98330607183522
Epoch: Jun 16, 2026 • Age: 9 hours

当前状态

高度 575.0 km
速度 7.58 km/s
星下点 21.76°N, 50.19°E
发射日期 Feb 17, 2023
运行时间 3.3 years
类型 internet

技术详情

分类 Payload
质量 305.00 kg
干质量 290.00 kg
总质量 305.00 kg
长度 0.20 m
直径 2.80 m
跨度 9.00 m
形状 Box + pan
制造商 SPXS
平台类型 Starlink
阶段状态 In Orbit
所有者/国家 SPXS/US

Most Searched